| time (UTC) | temp F | wind direction | speed MPH | gust MPH | rain 1hr in | rain 24hr in | rain mn in | humidity % | barometer mb |
| 20260504000056 | 62 | 67 | 0.0 | 3.0 | 0.00 | 0.00 | 0.00 | 80 | 1013.6 |
| 20260503235556 | 62 | 67 | 0.0 | 3.0 | 0.00 | 0.00 | 0.00 | 80 | 1013.7 |
| 20260503235053 | 63 | 28 | 1.0 | 6.0 | 0.00 | 0.00 | 0.00 | 79 | 1013.7 |
| 20260503234553 | 63 | 26 | 3.0 | 6.0 | 0.00 | 0.00 | 0.00 | 79 | 1013.6 |
| 20260503234055 | 63 | 355 | 4.0 | 8.0 | 0.00 | 0.00 | 0.00 | 79 | 1013.6 |
| 20260503233552 | 62 | 331 | 4.0 | 8.0 | 0.00 | 0.00 | 0.00 | 79 | 1013.6 |
| 20260503233100 | 62 | 355 | 4.0 | 9.0 | 0.00 | 0.00 | 0.00 | 79 | 1013.6 |
| 20260503232550 | 62 | 348 | 5.0 | 9.0 | 0.00 | 0.00 | 0.00 | 80 | 1013.6 |
| 20260503232050 | 62 | 355 | 3.0 | 8.0 | 0.00 | 0.00 | 0.00 | 80 | 1013.7 |
| 20260503231550 | 62 | 360 | 4.0 | 9.0 | 0.00 | 0.00 | 0.00 | 80 | 1013.6 |
| 20260503231050 | 62 | 13 | 4.0 | 8.0 | 0.00 | 0.00 | 0.00 | 81 | 1013.6 |
| 20260503230549 | 62 | 338 | 3.0 | 8.0 | 0.00 | 0.00 | 0.00 | 81 | 1013.6 |
| 20260503230049 | 62 | 355 | 2.0 | 5.0 | 0.00 | 0.00 | 0.00 | 82 | 1013.6 |
| 20260503225549 | 62 | 319 | 2.0 | 4.0 | 0.00 | 0.00 | 0.00 | 82 | 1013.8 |
| 20260503225049 | 62 | 299 | 2.0 | 4.0 | 0.00 | 0.00 | 0.00 | 82 | 1013.7 |
| 20260503224548 | 62 | 333 | 2.0 | 4.0 | 0.00 | 0.00 | 0.00 | 82 | 1013.7 |
| 20260503224047 | 62 | 355 | 0.0 | 3.0 | 0.00 | 0.00 | 0.00 | 82 | 1013.8 |
| 20260503223546 | 62 | 355 | 0.0 | 1.0 | 0.00 | 0.00 | 0.00 | 82 | 1013.9 |
| 20260503223046 | 62 | 355 | 0.0 | 3.0 | 0.00 | 0.00 | 0.00 | 82 | 1014.0 |
| 20260503222545 | 62 | 355 | 1.0 | 3.0 | 0.00 | 0.00 | 0.00 | 82 | 1014.0 |
| 20260503222045 | 62 | 5 | 0.0 | 1.0 | 0.00 | 0.00 | 0.00 | 83 | 1014.1 |
| 20260503221553 | 62 | 5 | 0.0 | 0.0 | 0.00 | 0.00 | 0.00 | 82 | 1014.2 |
| 20260503221043 | 62 | 5 | 0.0 | 0.0 | 0.00 | 0.00 | 0.00 | 82 | 1014.0 |
| 20260503220543 | 62 | 5 | 0.0 | 0.0 | 0.00 | 0.00 | 0.00 | 82 | 1014.1 |
| 20260503220050 | 63 | 5 | 0.0 | 0.0 | 0.00 | 0.00 | 0.00 | 81 | 1014.0 |
| 20260503215641 | 63 | 5 | 0.0 | 1.0 | 0.00 | 0.00 | 0.00 | 81 | 1014.0 |
| 20260503215041 | 63 | 5 | 0.0 | 2.0 | 0.00 | 0.00 | 0.00 | 80 | 1014.1 |
| 20260503214542 | 63 | 5 | 1.0 | 4.0 | 0.00 | 0.00 | 0.00 | 80 | 1014.0 |
| 20260503214040 | 63 | 5 | 2.0 | 4.0 | 0.00 | 0.00 | 0.00 | 81 | 1013.9 |
| 20260503213543 | 63 | 346 | 2.0 | 4.0 | 0.00 | 0.00 | 0.00 | 81 | 1013.8 |
| 20260503213040 | 63 | 350 | 2.0 | 4.0 | 0.00 | 0.00 | 0.00 | 81 | 1013.8 |
| 20260503212540 | 63 | 327 | 3.0 | 4.0 | 0.00 | 0.00 | 0.00 | 81 | 1013.8 |
| 20260503212040 | 63 | 360 | 2.0 | 3.0 | 0.00 | 0.00 | 0.00 | 81 | 1013.8 |
| 20260503211541 | 63 | 24 | 1.0 | 3.0 | 0.00 | 0.00 | 0.00 | 81 | 1013.7 |
| 20260503211040 | 63 | 24 | 0.0 | 0.0 | 0.00 | 0.00 | 0.00 | 81 | 1013.7 |
| 20260503210540 | 63 | 24 | 0.0 | 0.0 | 0.00 | 0.00 | 0.00 | 81 | 1013.7 |
| 20260503210049 | 63 | 25 | 0.0 | 2.0 | 0.00 | 0.00 | 0.00 | 80 | 1013.7 |
| 20260503205540 | 64 | 25 | 0.0 | 2.0 | 0.00 | 0.00 | 0.00 | 80 | 1013.6 |
| 20260503205040 | 64 | 22 | 0.0 | 1.0 | 0.00 | 0.00 | 0.00 | 79 | 1013.5 |
| 20260503204555 | 64 | 22 | 0.0 | 2.0 | 0.00 | 0.00 | 0.00 | 78 | 1013.4 |
| 20260503204039 | 64 | 22 | 1.0 | 4.0 | 0.00 | 0.00 | 0.00 | 78 | 1013.3 |
| 20260503203538 | 64 | 22 | 1.0 | 4.0 | 0.00 | 0.00 | 0.00 | 77 | 1013.3 |
| 20260503203039 | 64 | 27 | 3.0 | 6.0 | 0.00 | 0.00 | 0.00 | 77 | 1013.3 |
| 20260503202539 | 64 | 5 | 3.0 | 5.0 | 0.00 | 0.00 | 0.00 | 77 | 1013.3 |
| 20260503202039 | 64 | 337 | 2.0 | 5.0 | 0.00 | 0.00 | 0.00 | 77 | 1013.2 |
| 20260503201539 | 64 | 11 | 2.0 | 4.0 | 0.00 | 0.00 | 0.00 | 76 | 1013.2 |
| 20260503201038 | 65 | 15 | 2.0 | 5.0 | 0.00 | 0.00 | 0.00 | 76 | 1013.2 |
| 20260503200538 | 65 | 355 | 2.0 | 5.0 | 0.00 | 0.00 | 0.00 | 75 | 1013.2 |
| 20260503200044 | 65 | 44 | 2.0 | 4.0 | 0.00 | 0.00 | 0.00 | 75 | 1013.0 |
| 20260503195539 | 65 | 154 | 0.0 | 1.0 | 0.00 | 0.00 | 0.00 | 75 | 1012.9 |
| 20260503195037 | 66 | 154 | 0.0 | 1.0 | 0.00 | 0.00 | 0.00 | 75 | 1012.8 |
| 20260503194537 | 66 | 154 | 0.0 | 1.0 | 0.00 | 0.00 | 0.00 | 74 | 1012.7 |
| 20260503194037 | 66 | 154 | 0.0 | 2.0 | 0.00 | 0.00 | 0.00 | 74 | 1012.6 |
| 20260503193537 | 66 | 154 | 0.0 | 3.0 | 0.00 | 0.00 | 0.00 | 73 | 1012.7 |
| 20260503193036 | 66 | 154 | 0.0 | 3.0 | 0.00 | 0.00 | 0.00 | 73 | 1012.6 |
| 20260503192536 | 66 | 163 | 1.0 | 3.0 | 0.00 | 0.00 | 0.00 | 72 | 1012.5 |
| 20260503192037 | 66 | 176 | 0.0 | 4.0 | 0.00 | 0.00 | 0.00 | 72 | 1012.5 |
| 20260503191536 | 66 | 176 | 0.0 | 5.0 | 0.00 | 0.00 | 0.00 | 71 | 1012.5 |
| 20260503191036 | 67 | 196 | 1.0 | 4.0 | 0.00 | 0.00 | 0.00 | 71 | 1012.5 |
| 20260503190537 | 67 | 178 | 1.0 | 3.0 | 0.00 | 0.00 | 0.00 | 71 | 1012.4 |
| 20260503190044 | 67 | 180 | 1.0 | 2.0 | 0.00 | 0.00 | 0.00 | 72 | 1012.4 |
| 20260503185535 | 67 | 184 | 0.0 | 1.0 | 0.00 | 0.00 | 0.00 | 72 | 1012.3 |
| 20260503185035 | 67 | 184 | 0.0 | 3.0 | 0.00 | 0.00 | 0.00 | 72 | 1012.1 |
| 20260503184536 | 68 | 184 | 1.0 | 3.0 | 0.00 | 0.00 | 0.00 | 71 | 1012.1 |
| 20260503184034 | 68 | 184 | 0.0 | 4.0 | 0.00 | 0.00 | 0.00 | 71 | 1012.1 |
| 20260503183535 | 68 | 184 | 1.0 | 4.0 | 0.00 | 0.00 | 0.00 | 71 | 1012.1 |
| 20260503183033 | 68 | 169 | 2.0 | 4.0 | 0.00 | 0.00 | 0.00 | 70 | 1012.1 |
| 20260503182533 | 68 | 181 | 2.0 | 5.0 | 0.00 | 0.00 | 0.00 | 69 | 1012.2 |
| 20260503182032 | 68 | 203 | 1.0 | 5.0 | 0.00 | 0.00 | 0.00 | 69 | 1012.3 |
| 20260503181534 | 69 | 184 | 2.0 | 4.0 | 0.00 | 0.00 | 0.00 | 68 | 1012.4 |
| 20260503181032 | 69 | 183 | 0.0 | 2.0 | 0.00 | 0.00 | 0.00 | 68 | 1012.4 |
| 20260503180532 | 69 | 182 | 0.0 | 3.0 | 0.00 | 0.00 | 0.00 | 69 | 1012.3 |
| 20260503180032 | 69 | 182 | 0.0 | 5.0 | 0.00 | 0.00 | 0.00 | 68 | 1012.4 |
| 20260503175532 | 69 | 178 | 1.0 | 6.0 | 0.00 | 0.00 | 0.00 | 68 | 1012.3 |
| 20260503175030 | 69 | 180 | 1.0 | 6.0 | 0.00 | 0.00 | 0.00 | 70 | 1012.4 |
| 20260503174530 | 69 | 168 | 1.0 | 6.0 | 0.00 | 0.00 | 0.00 | 71 | 1012.5 |
| 20260503174029 | 69 | 173 | 3.0 | 9.0 | 0.00 | 0.00 | 0.00 | 71 | 1012.5 |
| 20260503173530 | 69 | 152 | 4.0 | 9.0 | 0.00 | 0.00 | 0.00 | 71 | 1012.5 |
| 20260503173036 | 69 | 155 | 4.0 | 8.0 | 0.00 | 0.00 | 0.00 | 71 | 1012.5 |
| 20260503172528 | 70 | 147 | 2.0 | 9.0 | 0.00 | 0.00 | 0.00 | 72 | 1012.6 |
| 20260503172029 | 70 | 198 | 5.0 | 9.0 | 0.00 | 0.00 | 0.00 | 71 | 1012.6 |
| 20260503171528 | 70 | 181 | 2.0 | 8.0 | 0.00 | 0.00 | 0.00 | 73 | 1012.6 |
| 20260503171028 | 70 | 190 | 3.0 | 8.0 | 0.00 | 0.00 | 0.00 | 73 | 1012.6 |
| 20260503170527 | 70 | 198 | 2.0 | 9.0 | 0.00 | 0.00 | 0.00 | 72 | 1012.7 |
| 20260503150516 | 71 | 109 | 7.0 | 10.0 | 0.00 | 0.00 | 0.00 | 74 | 1013.5 |
| 20260503131002 | 67 | 106 | 5.0 | 12.0 | 0.00 | 0.00 | 0.00 | 82 | 1014.9 |
| 20260503130502 | 67 | 98 | 3.0 | 11.0 | 0.00 | 0.00 | 0.00 | 82 | 1015.0 |
| 20260503120113 | 69 | 121 | 8.0 | 12.0 | 0.00 | 0.00 | 0.00 | 78 | 1015.5 |
| 20260503110554 | 67 | 106 | 5.0 | 11.0 | 0.00 | 0.00 | 0.00 | 80 | 1016.0 |
| 20260503081547 | 63 | 119 | 0.0 | 0.0 | 0.00 | 0.00 | 0.00 | 89 | 1016.0 |
| 20260503081030 | 63 | 119 | 0.0 | 0.0 | 0.00 | 0.00 | 0.00 | 89 | 1016.0 |
| 20260503080530 | 63 | 119 | 0.0 | 0.0 | 0.00 | 0.00 | 0.00 | 89 | 1016.1 |
| 20260503072527 | 63 | 119 | 0.0 | 2.0 | 0.00 | 0.00 | 0.00 | 88 | 1015.6 |
| 20260503072025 | 63 | 119 | 0.0 | 3.0 | 0.00 | 0.00 | 0.00 | 88 | 1015.6 |
| 20260503071535 | 63 | 119 | 1.0 | 3.0 | 0.00 | 0.00 | 0.00 | 88 | 1015.6 |
| 20260503071026 | 63 | 121 | 0.0 | 3.0 | 0.00 | 0.00 | 0.00 | 87 | 1015.7 |
| 20260503070523 | 63 | 134 | 0.0 | 4.0 | 0.00 | 0.00 | 0.00 | 87 | 1015.5 |
| 20260503055023 | 63 | 12 | 2.0 | 4.0 | 0.00 | 0.00 | 0.00 | 84 | 1014.6 |
| 20260503054532 | 63 | 13 | 0.0 | 3.0 | 0.00 | 0.00 | 0.00 | 84 | 1014.5 |
| 20260503054019 | 63 | 13 | 0.0 | 5.0 | 0.00 | 0.00 | 0.00 | 84 | 1014.7 |
| 20260503053518 | 63 | 16 | 3.0 | 5.0 | 0.00 | 0.00 | 0.00 | 84 | 1014.5 |
| 20260503053120 | 63 | 5 | 3.0 | 4.0 | 0.00 | 0.00 | 0.00 | 84 | 1014.3 |
| 20260503052524 | 63 | 5 | 2.0 | 6.0 | 0.00 | 0.00 | 0.00 | 84 | 1014.5 |
| 20260503052017 | 63 | 5 | 3.0 | 6.0 | 0.00 | 0.00 | 0.00 | 84 | 1014.4 |
| 20260503051518 | 63 | 5 | 3.0 | 6.0 | 0.00 | 0.00 | 0.00 | 84 | 1014.4 |
| 20260503051017 | 63 | 5 | 3.0 | 6.0 | 0.00 | 0.00 | 0.00 | 84 | 1014.4 |
| 20260503050517 | 63 | 13 | 3.0 | 8.0 | 0.00 | 0.00 | 0.00 | 84 | 1014.4 |
| 20260503050015 | 63 | 30 | 4.0 | 8.0 | 0.00 | 0.00 | 0.00 | 84 | 1014.4 |
| 20260503045515 | 63 | 5 | 3.0 | 6.0 | 0.00 | 0.00 | 0.00 | 84 | 1014.5 |
| 20260503045018 | 63 | 17 | 4.0 | 6.0 | 0.00 | 0.00 | 0.00 | 85 | 1014.5 |
| 20260503044525 | 63 | 20 | 3.0 | 6.0 | 0.00 | 0.00 | 0.00 | 85 | 1014.9 |
| 20260503044012 | 63 | 10 | 3.0 | 6.0 | 0.00 | 0.00 | 0.00 | 85 | 1014.9 |
| 20260503043512 | 63 | 13 | 4.0 | 7.0 | 0.00 | 0.00 | 0.00 | 85 | 1015.0 |
| 20260503043013 | 63 | 9 | 3.0 | 5.0 | 0.00 | 0.00 | 0.00 | 85 | 1014.9 |
| 20260503042511 | 63 | 41 | 2.0 | 5.0 | 0.00 | 0.00 | 0.00 | 85 | 1015.0 |
| 20260503042010 | 63 | 5 | 2.0 | 5.0 | 0.00 | 0.00 | 0.00 | 85 | 1015.1 |
| 20260503041513 | 63 | 5 | 3.0 | 5.0 | 0.00 | 0.00 | 0.00 | 85 | 1015.0 |
| 20260503041010 | 63 | 360 | 3.0 | 5.0 | 0.00 | 0.00 | 0.00 | 85 | 1015.1 |
| 20260503040510 | 63 | 10 | 2.0 | 4.0 | 0.00 | 0.00 | 0.00 | 85 | 1015.1 |
| 20260503040010 | 63 | 14 | 2.0 | 3.0 | 0.00 | 0.00 | 0.00 | 85 | 1015.1 |
| 20260503035510 | 63 | 14 | 1.0 | 4.0 | 0.00 | 0.00 | 0.00 | 85 | 1015.0 |
| 20260503035014 | 63 | 5 | 2.0 | 4.0 | 0.00 | 0.00 | 0.00 | 85 | 1015.0 |
| 20260503034510 | 63 | 355 | 2.0 | 4.0 | 0.00 | 0.00 | 0.00 | 85 | 1015.1 |
| 20260503034010 | 63 | 14 | 0.0 | 2.0 | 0.00 | 0.00 | 0.00 | 85 | 1015.2 |
| 20260503033512 | 62 | 15 | 0.0 | 3.0 | 0.00 | 0.00 | 0.00 | 85 | 1015.2 |
| 20260503033009 | 62 | 15 | 0.0 | 3.0 | 0.00 | 0.00 | 0.00 | 85 | 1015.3 |
| 20260503032509 | 62 | 14 | 1.0 | 3.0 | 0.00 | 0.00 | 0.00 | 85 | 1015.3 |
| 20260503032008 | 62 | 15 | 1.0 | 3.0 | 0.00 | 0.00 | 0.00 | 86 | 1015.3 |
| 20260503031509 | 62 | 15 | 1.0 | 4.0 | 0.00 | 0.00 | 0.00 | 86 | 1015.3 |
| 20260503031008 | 62 | 15 | 1.0 | 5.0 | 0.00 | 0.00 | 0.00 | 86 | 1015.3 |
| 20260503030513 | 62 | 14 | 0.0 | 5.0 | 0.00 | 0.00 | 0.00 | 86 | 1015.3 |
| 20260503030015 | 62 | 5 | 3.0 | 6.0 | 0.00 | 0.00 | 0.00 | 86 | 1015.3 |
| 20260503025509 | 62 | 5 | 3.0 | 5.0 | 0.00 | 0.00 | 0.00 | 86 | 1015.2 |
| 20260503025008 | 62 | 11 | 3.0 | 5.0 | 0.00 | 0.00 | 0.00 | 86 | 1015.3 |
| 20260503024508 | 62 | 355 | 1.0 | 3.0 | 0.00 | 0.00 | 0.00 | 86 | 1015.4 |
| 20260503024009 | 62 | 342 | 1.0 | 3.0 | 0.00 | 0.00 | 0.00 | 86 | 1015.4 |
| 20260503023507 | 62 | 317 | 0.0 | 0.0 | 0.00 | 0.00 | 0.00 | 86 | 1015.5 |
| 20260503023006 | 62 | 317 | 0.0 | 0.0 | 0.00 | 0.00 | 0.00 | 86 | 1015.5 |
| 20260503022506 | 62 | 317 | 0.0 | 0.0 | 0.00 | 0.00 | 0.00 | 86 | 1015.6 |
| 20260503022010 | 62 | 317 | 0.0 | 0.0 | 0.00 | 0.00 | 0.00 | 86 | 1015.6 |
| 20260503021506 | 62 | 317 | 0.0 | 0.0 | 0.00 | 0.00 | 0.00 | 86 | 1015.5 |
| 20260503021006 | 62 | 317 | 0.0 | 0.0 | 0.00 | 0.00 | 0.00 | 86 | 1015.4 |
| 20260503020508 | 62 | 317 | 0.0 | 1.0 | 0.00 | 0.00 | 0.00 | 86 | 1015.3 |
| 20260503020005 | 62 | 317 | 0.0 | 1.0 | 0.00 | 0.00 | 0.00 | 86 | 1015.1 |
| 20260503015505 | 62 | 317 | 0.0 | 1.0 | 0.00 | 0.00 | 0.00 | 86 | 1015.1 |
| 20260503015004 | 62 | 317 | 0.0 | 2.0 | 0.00 | 0.00 | 0.00 | 85 | 1015.1 |
| 20260503014505 | 62 | 315 | 0.0 | 2.0 | 0.00 | 0.00 | 0.00 | 85 | 1015.1 |
| 20260503014003 | 62 | 315 | 0.0 | 4.0 | 0.00 | 0.00 | 0.00 | 85 | 1015.1 |
| 20260503013503 | 62 | 345 | 0.0 | 4.0 | 0.00 | 0.00 | 0.00 | 85 | 1015.1 |
| 20260503013002 | 62 | 5 | 1.0 | 4.0 | 0.00 | 0.00 | 0.00 | 85 | 1015.1 |
| 20260503012502 | 63 | 5 | 2.0 | 4.0 | 0.00 | 0.00 | 0.00 | 85 | 1015.3 |
| 20260503012101 | 63 | 5 | 1.0 | 5.0 | 0.00 | 0.00 | 0.00 | 86 | 1015.3 |
| 20260503011608 | 63 | 5 | 1.0 | 5.0 | 0.00 | 0.00 | 0.00 | 85 | 1015.4 |
| 20260503011059 | 63 | 31 | 0.0 | 0.0 | 0.00 | 0.00 | 0.00 | 86 | 1015.6 |
| 20260503010601 | 63 | 49 | 0.0 | 0.0 | 0.00 | 0.00 | 0.00 | 86 | 1015.7 |
| 20260503005558 | 63 | 49 | 0.0 | 0.0 | 0.00 | 0.00 | 0.00 | 86 | 1016.1 |
| 20260503005100 | 63 | 49 | 0.0 | 0.0 | 0.00 | 0.00 | 0.00 | 86 | 1016.1 |
| 20260503004557 | 63 | 49 | 0.0 | 0.0 | 0.00 | 0.00 | 0.00 | 86 | 1016.0 |
| 20260503004055 | 63 | 49 | 0.0 | 0.0 | 0.00 | 0.00 | 0.00 | 85 | 1016.1 |
| 20260503003555 | 63 | 49 | 0.0 | 0.0 | 0.00 | 0.00 | 0.00 | 85 | 1016.0 |
| 20260503003055 | 63 | 49 | 0.0 | 0.0 | 0.00 | 0.00 | 0.00 | 85 | 1016.2 |
| 20260503002554 | 63 | 49 | 0.0 | 0.0 | 0.00 | 0.00 | 0.00 | 85 | 1016.3 |
| 20260503002054 | 63 | 49 | 0.0 | 0.0 | 0.00 | 0.00 | 0.00 | 85 | 1016.2 |
| 20260503001555 | 63 | 49 | 0.0 | 0.0 | 0.00 | 0.00 | 0.00 | 85 | 1016.3 |
| 20260503001052 | 63 | 49 | 0.0 | 0.0 | 0.00 | 0.00 | 0.00 | 85 | 1016.3 |
| 20260503000552 | 63 | 49 | 0.0 | 0.0 | 0.00 | 0.00 | 0.00 | 85 | 1016.4 |